GW0490 Weather Reports


time (UTC)temp
C
wind
direction
speed
KPH
gust
KPH
rain 1hr
cm
rain 24hr
cm
rain mn
cm
humidity
%
barometer
mb
20260507021045 13 41 1.6 1.6 0.18 1.04 1.04 99 1000.8
20260507020544 13 35 0.0 0.0 0.00 1.02 1.02 99 1000.7
20260507020040 13 35 0.0 1.6 0.00 1.02 1.02 99 1000.6
20260507015538 13 35 0.0 0.0 0.00 1.02 1.02 99 1000.8
20260507015035 13 36 0.0 1.6 0.00 1.02 1.02 99 1000.7
20260507014532 13 35 0.0 1.6 0.00 1.02 1.02 99 1000.9
20260507014027 13 35 0.0 0.0 0.00 1.02 1.02 99 1000.8
20260507013524 13 20 1.6 3.2 0.00 1.02 1.02 99 1001.0
20260507013022 14 12 1.6 3.2 0.00 1.02 1.02 99 1000.6
20260507012519 14 35 1.6 1.6 0.13 1.02 1.02 99 1000.7
20260507012015 14 33 0.0 0.0 0.13 1.02 1.02 99 1000.8
20260507011513 14 33 0.0 1.6 0.00 0.99 0.99 99 1000.8
20260507011008 14 34 0.0 0.0 0.00 0.99 0.99 99 1000.6
20260507010503 14 34 0.0 1.6 0.00 0.99 0.99 99 1000.4
20260507010000 14 34 0.0 0.0 0.00 0.99 0.99 99 1000.7
20260507005457 14 29 0.0 1.6 0.00 0.99 0.99 99 1000.3
20260507004953 15 42 0.0 1.6 0.00 0.99 0.99 99 1000.6
20260507004450 15 42 0.0 1.6 0.00 0.99 0.99 99 1000.6
20260507003948 15 42 1.6 1.6 0.00 0.99 0.99 99 1000.2
20260507003443 15 42 0.0 1.6 0.00 0.99 0.99 99 1000.4
20260507002938 15 31 0.0 1.6 0.00 0.99 0.99 99 1000.4
20260507002435 15 31 0.0 0.0 0.00 0.99 0.99 99 1000.3
20260507001932 15 31 0.0 0.0 0.00 0.99 0.99 99 1000.4
20260507001428 15 26 1.6 1.6 0.00 0.99 0.99 99 1000.3
20260507000926 15 35 0.0 1.6 0.00 0.99 0.99 99 1000.3
20260507000421 15 345 1.6 3.2 0.00 0.99 0.99 99 1000.3
20260506235917 15 24 0.0 1.6 0.00 0.99 0.99 99 1000.0
20260506235415 15 12 4.8 8.0 0.00 0.99 0.99 99 1000.0
20260506234910 15 0 3.2 3.2 0.00 0.99 0.99 99 1000.1
20260506234408 15 14 3.2 3.2 0.00 0.99 0.99 99 999.9
20260506233906 15 29 1.6 3.2 0.00 0.99 0.99 99 999.8
20260506233401 15 236 4.8 8.0 0.00 0.99 0.99 99 999.7
20260506232858 15 342 3.2 9.7 0.00 0.99 0.99 99 999.6
20260506232354 15 9 3.2 9.7 0.00 0.99 0.99 99 999.6
20260506231850 15 14 1.6 4.8 0.00 0.99 0.99 99 999.8
20260506231348 15 54 1.6 3.2 0.00 0.99 0.99 99 999.8
20260506230846 15 209 3.2 8.0 0.00 0.99 0.99 99 999.6
20260506230342 15 16 1.6 4.8 0.00 0.99 0.99 99 999.9
20260506225838 15 34 1.6 1.6 0.00 0.99 0.99 99 999.6
20260506225336 15 60 1.6 3.2 0.00 0.99 0.99 99 999.9
20260506224833 15 17 1.6 4.8 0.18 0.99 0.99 99 999.6
20260506224330 15 21 0.0 9.7 0.00 0.97 0.97 99 999.8
20260506223826 15 8 3.2 4.8 0.00 0.97 0.97 99 999.9
20260506223321 15 57 1.6 3.2 0.13 0.97 0.97 99 1000.0
20260506222819 15 35 0.0 3.2 0.30 0.97 0.97 99 999.9
20260506222313 15 325 3.2 4.8 0.18 0.94 0.94 99 1000.2
20260506221807 15 38 0.0 1.6 0.00 0.91 0.91 99 1000.2
20260506221304 15 31 0.0 1.6 0.00 0.91 0.91 99 1000.1
20260506220801 15 39 0.0 1.6 0.13 0.91 0.91 99 1000.4
20260506220256 15 38 0.0 0.0 0.13 0.91 0.91 99 1000.4
20260506215753 15 38 0.0 0.0 0.18 0.89 0.89 99 1000.7
20260506215249 15 38 0.0 0.0 0.48 0.89 0.89 99 1000.7
20260506214745 15 38 0.0 0.0 0.48 0.86 0.86 99 1000.8
20260506214242 15 38 0.0 1.6 0.30 0.81 0.81 99 1000.7
20260506213741 15 50 0.0 0.0 0.30 0.79 0.79 99 1000.8
20260506213237 15 50 0.0 0.0 0.48 0.76 0.76 99 1001.0
20260506212735 15 50 0.0 1.6 0.71 0.74 0.74 99 1001.0
20260506212230 15 34 1.6 1.6 0.61 0.69 0.69 99 1000.9
20260506211725 15 11 3.2 4.8 0.18 0.61 0.61 99 1001.1
20260506211222 15 39 0.0 1.6 0.00 0.58 0.58 99 1001.2
20260506210719 15 306 1.6 4.8 0.00 0.58 0.58 99 1001.1
20260506210216 15 39 0.0 3.2 0.00 0.58 0.58 99 1001.2
20260506205713 15 35 0.0 1.6 0.00 0.58 0.58 99 1001.2
20260506205208 15 42 0.0 1.6 0.00 0.58 0.58 99 1001.2
20260506204706 15 42 1.6 3.2 0.13 0.58 0.58 99 1001.4
20260506204203 15 44 1.6 8.0 0.13 0.58 0.58 99 1001.2
20260506203701 15 32 1.6 3.2 0.00 0.56 0.56 99 1001.4
20260506203158 16 17 1.6 3.2 0.00 0.56 0.56 99 1001.5
20260506202656 15 45 0.0 3.2 0.00 0.56 0.56 99 1001.3
20260506202151 16 348 1.6 1.6 0.18 0.56 0.56 99 1001.3
20260506201649 16 36 0.0 3.2 0.18 0.56 0.56 99 1001.3
20260506201145 16 16 3.2 4.8 0.18 0.53 0.53 99 1001.4
20260506200642 16 27 3.2 4.8 0.13 0.51 0.51 99 1001.5
20260506200138 16 35 1.6 1.6 0.30 0.51 0.51 99 1001.5
20260506195635 16 26 1.6 3.2 0.18 0.48 0.48 99 1001.3
20260506195131 16 38 1.6 1.6 0.00 0.46 0.46 99 1001.5
20260506194629 16 27 1.6 1.6 0.13 0.46 0.46 99 1001.6
20260506194125 16 42 0.0 0.0 0.13 0.46 0.46 99 1001.5
20260506193623 16 43 0.0 1.6 0.18 0.43 0.43 99 1001.6
20260506193120 16 26 0.0 3.2 0.18 0.43 0.43 99 1001.7
20260506192617 16 27 1.6 3.2 0.00 0.41 0.41 99 1001.7
20260506192112 16 22 1.6 3.2 0.13 0.41 0.41 99 1001.8
20260506191609 16 28 0.0 1.6 0.30 0.41 0.41 99 1002.0
20260506191105 15 25 1.6 1.6 0.30 0.38 0.38 99 1002.0
20260506190603 15 56 0.0 1.6 0.13 0.36 0.36 99 1002.0
20260506190100 15 56 0.0 1.6 0.18 0.33 0.33 99 1001.9
20260506185557 15 56 0.0 1.6 0.18 0.33 0.33 99 1002.0
20260506185053 15 65 0.0 1.6 0.13 0.30 0.30 99 1001.9
20260506184551 15 57 0.0 0.0 0.13 0.30 0.30 99 1001.9
20260506184048 15 57 0.0 0.0 0.18 0.28 0.28 99 1002.0
20260506183544 15 87 0.0 0.0 0.18 0.28 0.28 99 1002.2
20260506183040 15 90 0.0 0.0 0.13 0.25 0.25 99 1002.6
20260506182538 15 87 0.0 0.0 0.30 0.25 0.25 99 1002.4
20260506182035 15 57 1.6 1.6 0.36 0.23 0.23 99 1002.5
20260506181533 15 52 1.6 1.6 0.18 0.20 0.20 99 1002.7
20260506181029 15 72 0.0 1.6 0.13 0.18 0.18 99 1002.9
20260506180526 15 17 1.6 1.6 0.30 0.18 0.18 99 1002.9
20260506180023 15 17 1.6 3.2 0.30 0.15 0.15 99 1002.6
20260506175519 15 17 1.6 1.6 0.13 0.13 0.13 99 1002.8
20260506175016 15 17 0.0 0.0 0.18 0.10 0.10 99 1002.6
20260506174514 16 17 0.0 3.2 0.18 0.10 0.10 99 1002.8
20260506174010 16 17 0.0 1.6 0.13 0.08 0.08 99 1002.8
20260506173508 16 17 0.0 1.6 0.13 0.08 0.08 99 1002.5
20260506173005 16 17 0.0 0.0 0.00 0.05 0.05 97 1002.5
20260506172502 16 17 0.0 0.0 0.18 0.05 0.05 96 1002.6
20260506171958 16 17 1.6 1.6 0.13 0.03 0.03 94 1002.5
20260506171455 17 17 0.0 1.6 0.13 0.03 0.03 91 1002.6
20260506170953 17 17 0.0 1.6 0.00 0.00 0.00 88 1002.7
20260506170449 17 17 0.0 1.6 0.00 0.00 0.00 86 1002.6
20260506165942 17 17 1.6 1.6 0.00 0.00 0.00 85 1002.8
20260506165440 17 17 0.0 1.6 0.00 0.00 0.00 84 1002.9
20260506164936 17 17 0.0 1.6 0.00 0.00 0.00 84 1003.1
20260506164433 17 17 0.0 1.6 0.00 0.00 0.00 84 1002.9
20260506163925 17 17 1.6 1.6 0.00 0.00 0.00 83 1003.0
20260506163419 17 17 0.0 1.6 0.00 0.00 0.00 84 1003.2
20260506162914 17 17 0.0 1.6 0.00 0.00 0.00 84 1003.4
20260506162412 17 17 0.0 0.0 0.00 0.00 0.00 84 1003.8
20260506161904 17 16 0.0 1.6 0.00 0.00 0.00 83 1003.9
20260506161402 17 16 0.0 3.2 0.00 0.00 0.00 84 1004.0
20260506160859 17 12 0.0 3.2 0.00 0.00 0.00 84 1004.2
20260506160356 17 25 0.0 1.6 0.00 0.00 0.00 85 1004.1
20260506155854 17 20 0.0 3.2 0.00 0.00 0.00 85 1004.6
20260506155350 17 22 0.0 0.0 0.00 0.00 0.00 84 1004.3
20260506153508 17 356 3.2 3.2 0.00 0.00 0.00 81 1004.4
20260506153005 17 23 0.0 1.6 0.00 0.00 0.00 82 1004.4
20260506152502 17 23 0.0 1.6 0.00 0.00 0.00 82 1004.6
20260506152000 17 20 1.6 1.6 0.00 0.00 0.00 83 1004.5
20260506151458 17 27 1.6 1.6 0.00 0.00 0.00 82 1004.5
20260506150955 17 27 0.0 0.0 0.00 0.00 0.00 83 1004.5
20260506150450 17 27 0.0 1.6 0.00 0.00 0.00 83 1004.7
20260506145948 17 27 0.0 0.0 0.00 0.00 0.00 82 1004.7
20260506145444 17 27 0.0 1.6 0.00 0.00 0.00 82 1004.5
20260506144942 17 27 0.0 1.6 0.00 0.00 0.00 82 1004.6
20260506144438 17 5 1.6 3.2 0.00 0.00 0.00 81 1004.4
20260506143937 17 27 1.6 4.8 0.00 0.00 0.00 82 1004.4
20260506143433 17 352 4.8 4.8 0.00 0.00 0.00 80 1004.4
20260506142932 17 35 0.0 1.6 0.00 0.00 0.00 81 1004.5
20260506142429 17 325 4.8 4.8 0.00 0.00 0.00 80 1004.4
20260506141927 17 356 0.0 1.6 0.00 0.00 0.00 81 1004.3
20260506141425 17 180 4.8 4.8 0.00 0.00 0.00 80 1004.2
20260506140923 17 12 3.2 4.8 0.00 0.00 0.00 80 1004.4
20260506140420 17 3 1.6 4.8 0.00 0.00 0.00 80 1004.6
20260506135917 17 26 1.6 1.6 0.00 0.00 0.00 80 1004.6
20260506135414 17 26 1.6 3.2 0.00 0.00 0.00 80 1004.6
20260506134910 17 6 1.6 3.2 0.00 0.00 0.00 80 1004.6
20260506134406 17 43 0.0 1.6 0.00 0.00 0.00 82 1004.7
20260506133903 17 43 0.0 1.6 0.00 0.00 0.00 84 1004.7
20260506133400 16 43 0.0 1.6 0.00 0.00 0.00 84 1004.8
20260506132856 16 43 0.0 1.6 0.00 0.00 0.00 85 1004.7
20260506132354 16 43 0.0 1.6 0.00 0.00 0.00 85 1004.7
20260506131852 16 43 3.2 3.2 0.00 0.00 0.00 85 1004.7
20260506131348 16 43 0.0 1.6 0.00 0.00 0.00 85 1004.6
20260506130845 16 43 0.0 1.6 0.00 0.00 0.00 85 1005.0
20260506130341 16 42 0.0 1.6 0.00 0.00 0.00 85 1004.8
20260506125839 16 42 0.0 1.6 0.00 0.00 0.00 86 1004.8
20260506125338 16 43 0.0 1.6 0.00 0.00 0.00 86 1004.5
20260506124835 16 42 1.6 1.6 0.00 0.00 0.00 86 1004.7
20260506124332 16 42 1.6 1.6 0.00 0.00 0.00 87 1005.1
20260506123830 16 43 1.6 1.6 0.00 0.00 0.00 87 1004.8
20260506123328 16 43 1.6 1.6 0.00 0.00 0.00 87 1004.8
20260506122825 16 30 0.0 1.6 0.00 0.00 0.00 88 1005.0
20260506122322 16 45 0.0 0.0 0.00 0.00 0.00 89 1005.1
20260506121820 16 45 1.6 3.2 0.00 0.00 0.00 89 1005.1
20260506121317 16 35 0.0 3.2 0.00 0.00 0.00 89 1005.2
20260506120814 15 52 0.0 1.6 0.00 0.00 0.00 90 1005.3
20260506120312 16 59 1.6 3.2 0.00 0.00 0.00 89 1005.3
20260506115809 15 51 0.0 1.6 0.00 0.00 0.00 91 1005.2
20260506115307 15 60 1.6 4.8 0.00 0.00 0.00 92 1005.1
20260506114805 15 26 1.6 1.6 0.00 0.00 0.00 92 1005.4
20260506114302 15 26 0.0 3.2 0.00 0.00 0.00 94 1005.3
20260506113801 15 26 0.0 0.0 0.00 0.00 0.00 95 1005.4
20260506113258 14 26 1.6 1.6 0.00 0.00 0.00 95 1005.4
20260506112754 14 27 0.0 0.0 0.00 0.00 0.00 96 1005.2
20260506112252 14 27 0.0 1.6 0.00 0.00 0.00 96 1005.4
20260506111749 13 27 0.0 1.6 0.00 0.00 0.00 97 1005.2
20260506111247 13 26 0.0 1.6 0.00 0.00 0.00 98 1005.5
20260506110743 13 26 0.0 1.6 0.00 0.00 0.00 98 1005.5
20260506110241 13 26 0.0 1.6 0.00 0.00 0.00 98 1005.5
20260506105737 13 26 0.0 1.6 0.00 0.00 0.00 97 1005.7
20260506105235 13 27 1.6 1.6 0.00 0.00 0.00 98 1005.2
20260506104732 13 27 0.0 0.0 0.00 0.00 0.00 98 1005.3
20260506104230 13 28 1.6 1.6 0.00 0.00 0.00 99 1005.4
20260506103727 13 28 1.6 1.6 0.00 0.00 0.00 99 1005.5
20260506103224 12 28 0.0 1.6 0.00 0.00 0.00 99 1005.3
20260506102722 12 28 0.0 1.6 0.00 0.00 0.00 99 1005.4
20260506102220 12 28 0.0 1.6 0.00 0.00 0.00 99 1005.3
20260506101716 12 27 0.0 0.0 0.00 0.00 0.00 99 1005.1
20260506101213 12 27 0.0 0.0 0.00 0.00 0.00 99 1005.2
20260506100711 12 27 0.0 0.0 0.00 0.00 0.00 99 1005.2
20260506100209 12 27 0.0 1.6 0.00 0.00 0.00 99 1005.0
20260506095707 12 27 0.0 0.0 0.00 0.00 0.00 99 1005.1
20260506095203 12 27 0.0 0.0 0.00 0.00 0.00 99 1005.0
20260506094701 12 27 0.0 0.0 0.00 0.00 0.00 99 1004.8
20260506094158 12 27 0.0 0.0 0.00 0.00 0.00 99 1004.8
20260506093657 12 27 0.0 1.6 0.00 0.00 0.00 99 1005.0
20260506093153 12 27 0.0 0.0 0.00 0.00 0.00 99 1005.0
20260506092651 11 27 0.0 0.0 0.00 0.00 0.00 99 1005.0
20260506092148 11 27 0.0 0.0 0.00 0.00 0.00 99 1005.0
20260506091646 11 27 0.0 0.0 0.00 0.00 0.00 99 1005.0
20260506091143 11 27 0.0 0.0 0.00 0.00 0.00 99 1005.0
20260506090641 12 27 0.0 0.0 0.00 0.00 0.00 99 1004.8
20260506090138 12 27 0.0 0.0 0.00 0.00 0.00 99 1004.8
20260506085634 12 27 0.0 0.0 0.00 0.00 0.00 99 1004.7
20260506085131 12 27 0.0 0.0 0.00 0.00 0.00 99 1004.8
20260506084627 12 27 0.0 0.0 0.00 0.00 0.00 99 1004.7
20260506084124 12 27 0.0 0.0 0.00 0.00 0.00 99 1004.9
20260506083621 12 27 0.0 0.0 0.00 0.00 0.00 99 1004.5
20260506083119 12 27 0.0 0.0 0.00 0.00 0.00 99 1005.0
20260506082615 12 27 0.0 0.0 0.00 0.00 0.00 99 1004.8
20260506082111 12 27 0.0 0.0 0.00 0.00 0.00 99 1004.8
20260506081609 13 27 0.0 0.0 0.00 0.00 0.00 99 1004.9
20260506081107 13 27 0.0 1.6 0.00 0.00 0.00 99 1004.8
20260506080604 13 27 0.0 0.0 0.00 0.00 0.00 99 1004.8
20260506073044 13 27 0.0 0.0 0.00 0.00 0.00 98 1004.3
20260506072541 13 26 1.6 1.6 0.00 0.00 0.00 98 1004.4
20260506072039 13 29 0.0 1.6 0.00 0.00 0.00 99 1004.3
20260506071537 13 29 0.0 1.6 0.00 0.00 0.00 99 1004.4
20260506071034 13 29 0.0 1.6 0.00 0.00 0.00 98 1004.4
20260506070531 13 29 1.6 1.6 0.00 0.00 0.00 98 1004.2
20260506062509 13 29 0.0 1.6 0.00 0.00 0.00 98 1003.9
20260506062005 12 29 1.6 1.6 0.00 0.00 0.00 99 1004.2
20260506061501 12 29 0.0 0.0 0.00 0.00 0.00 99 1004.0
20260506060959 12 29 0.0 1.6 0.00 0.00 0.00 99 1004.3
20260506060457 12 29 0.0 1.6 0.00 0.00 0.00 99 1004.2
20260506050926 13 29 0.0 0.0 0.00 0.00 0.00 96 1004.2
20260506050424 14 29 0.0 0.0 0.00 0.00 0.00 96 1004.1
20260506044914 14 29 0.0 0.0 0.00 0.00 0.00 96 1004.2
20260506044412 14 29 0.0 1.6 0.00 0.00 0.00 96 1004.2
20260506043909 14 29 0.0 1.6 0.00 0.00 0.00 95 1004.2
20260506043406 14 29 1.6 1.6 0.00 0.00 0.00 96 1004.2
20260506042904 14 29 0.0 0.0 0.00 0.00 0.00 96 1004.4
20260506042403 14 29 0.0 0.0 0.00 0.00 0.00 96 1004.4
20260506041901 14 29 0.0 1.6 0.00 0.00 0.00 96 1004.6
20260506041358 14 29 0.0 0.0 0.00 0.00 0.00 96 1004.2
20260506040855 14 29 0.0 0.0 0.00 0.00 0.00 95 1004.3
20260506040353 14 29 0.0 0.0 0.00 0.00 0.00 96 1004.3
20260506035848 14 29 0.0 0.0 0.00 0.05 0.05 96 1004.2
20260506035346 14 29 0.0 0.0 0.00 0.05 0.05 96 1004.1
20260506034843 14 29 0.0 0.0 0.00 0.05 0.05 96 1004.5
20260506034340 14 29 0.0 0.0 0.00 0.05 0.05 97 1004.6
20260506033837 13 29 0.0 0.0 0.00 0.05 0.05 97 1004.5
20260506033334 13 29 0.0 0.0 0.00 0.05 0.05 97 1004.4
20260506032831 13 29 0.0 0.0 0.00 0.05 0.05 97 1004.3
20260506032328 13 29 0.0 0.0 0.00 0.05 0.05 97 1004.3
20260506031825 13 29 0.0 0.0 0.00 0.05 0.05 97 1004.1
20260506031322 13 29 0.0 0.0 0.00 0.05 0.05 97 1004.1
20260506030820 13 29 0.0 0.0 0.00 0.05 0.05 96 1004.1
20260506030317 13 29 0.0 0.0 0.00 0.05 0.05 97 1004.1
20260506025814 14 29 0.0 0.0 0.00 0.05 0.05 97 1004.1
20260506025310 14 29 0.0 0.0 0.00 0.05 0.05 96 1004.1
20260506024808 14 29 0.0 0.0 0.00 0.05 0.05 96 1004.1
20260506024304 14 29 0.0 0.0 0.00 0.05 0.05 96 1004.2
20260506023800 14 29 0.0 0.0 0.00 0.05 0.05 95 1004.1
20260506023258 15 29 0.0 0.0 0.00 0.05 0.05 95 1004.1
20260506022754 15 29 0.0 0.0 0.00 0.05 0.05 94 1004.1
20260506022252 15 29 0.0 0.0 0.00 0.05 0.05 93 1003.9
20260506021750 15 29 0.0 0.0 0.00 0.05 0.05 93 1003.8